Weather History for MKJP - March, 2014

Change the Weather History Date:

Sunday, March 30, 2014

  Actual Average Record
Temperature  
Mean Temperature 82 °F -  
Max Temperature 88 °F 85 °F 89 °F (1999)
Min Temperature 76 °F 76 °F 73 °F (1997)
Cooling Degree Days 17    
Growing Degree Days 32 (Base 50)    
Moisture  
Dew Point 75 °F    
Average Humidity 80    
Maximum Humidity 94    
Minimum Humidity 66    
Precipitation  
Precipitation 0.00 in - - ()
Sea Level Pressure  
Sea Level Pressure 29.95 in    
Wind  
Wind Speed 7 mph ()    
Max Wind Speed 14 mph    
Max Gust Speed -    
Visibility 7.7 miles    
Events Thunderstorm    
Averages and records for this station are not official NWS values.
T = Trace of Precipitation, MM = Missing Value Source: Averaged Metar Reports

Daily Weather History Graph

Daily Weather History Graph

Search for Another Location

Airport or City:

Trip Planner

Search our weather history database for the weather conditions in past years. The results will help you decide how hot, cold, wet, or windy it might be!

Date:

Astronomy

Mar. 30, 2014 Rise Set
Actual Time 6:03 AM EST 6:20 PM EST
Civil Twilight 5:41 AM EST 6:42 PM EST
Nautical Twilight 5:15 AM EST 7:07 PM EST
Astronomical Twilight 4:50 AM EST 7:33 PM EST
Moon 5:47 AM EST (3/30) 6:25 PM EST (3/30)
Length of Visible Light 13h 00m
Length of Day
12h 17m
Waning Crescent, 0% of the Moon is Illuminated
Mar 30
Waning Crescent
Mar 30
New
Apr 7
First Quarter
Apr 15
Full
Apr 22
Last Quarter

Hourly Weather History & Observations

Time (EST) Temp. Heat Index Dew Point Humidity Pressure Visibility Wind Dir Wind Speed Gust Speed Precip Events Conditions
12:00 AM 80.6 °F 86.2 °F 75.2 °F 84% 29.95 in 6.2 mi East 5.8 mph - N/A   Partly Cloudy
1:00 AM 80 °F - 71 °F 68% 29.95 in 14 mi ESE 4.6 mph - -   Scattered Clouds
1:00 AM 80.6 °F 84.6 °F 71.6 °F 74% 29.95 in 6.2 mi ESE 4.6 mph - N/A   Partly Cloudy
2:00 AM 78.8 °F - 75.2 °F 89% 29.92 in 6.2 mi NNW 6.9 mph - N/A   Partly Cloudy
3:00 AM 78.8 °F - 75.2 °F 89% 29.92 in 6.2 mi North 6.9 mph - N/A   Partly Cloudy
4:00 AM 78 °F - 75 °F 89% 29.92 in 14 mi North 6.9 mph - -   Scattered Clouds
4:00 AM 78.8 °F - 75.2 °F 89% 29.92 in 6.2 mi North 6.9 mph - N/A   Partly Cloudy
5:00 AM 78.8 °F - 77.0 °F 94% 29.92 in 6.2 mi North 8.1 mph - N/A   Partly Cloudy
6:00 AM 78.8 °F - 75.2 °F 89% 29.95 in 6.2 mi North 10.4 mph - N/A   Partly Cloudy
7:00 AM 78 °F - 73 °F 80% 29.97 in 14 mi NNW 8.1 mph - -   Haze
7:00 AM 78.8 °F - 73.4 °F 83% 29.95 in 6.2 mi NNW 8.1 mph - N/A   Partly Cloudy
8:00 AM 82.4 °F 87.2 °F 71.6 °F 70% 29.98 in 6.2 mi North 4.6 mph - N/A   Partly Cloudy
9:00 AM 84.2 °F 92.3 °F 75.2 °F 74% 29.98 in 6.2 mi South 6.9 mph - N/A   Partly Cloudy
10:00 AM 85 °F - 75 °F 66% 30.01 in 14 mi South 9.2 mph - -   Haze
10:00 AM 86.0 °F 95.1 °F 75.2 °F 70% 30.01 in 6.2 mi South 9.2 mph - N/A   Partly Cloudy
11:00 AM 86.0 °F 96.9 °F 77.0 °F 74% 29.98 in 6.2 mi South 9.2 mph - N/A   Partly Cloudy
12:00 PM 86.0 °F 96.9 °F 77.0 °F 74% 29.98 in 6.2 mi SSE 11.5 mph - N/A   Partly Cloudy
1:00 PM 87 °F - 78 °F 68% 29.96 in 14 mi SSE 12.7 mph - -   Haze
1:00 PM 86.0 °F 99.3 °F 78.8 °F 79% 29.95 in 6.2 mi SSE 12.7 mph - N/A   Partly Cloudy
2:00 PM 86.0 °F 99.3 °F 78.8 °F 79% 29.92 in 6.2 mi SSE 13.8 mph - N/A   Scattered Clouds
3:00 PM 84.2 °F 98.3 °F 80.6 °F 89% 29.92 in 6.2 mi SSE 13.8 mph - N/A   Partly Cloudy
4:00 PM 83 °F - 80 °F 86% 29.91 in 9 mi SSE 13.8 mph - -   Partly Cloudy
4:00 PM 82.4 °F 92.4 °F 78.8 °F 89% 29.89 in 6.2 mi SSE 13.8 mph - N/A   Partly Cloudy
5:00 PM 82.4 °F 94.0 °F 80.6 °F 94% 29.89 in 6.2 mi SE 13.8 mph - N/A   Partly Cloudy
6:00 PM 82.4 °F 88.2 °F 73.4 °F 74% 29.92 in 6.2 mi SSE 10.4 mph - N/A   Mostly Cloudy
7:00 PM 82 °F - 76 °F 76% 29.96 in 11 mi SSE 10.4 mph - -   Mostly Cloudy
7:00 PM 82.4 °F 89.5 °F 75.2 °F 79% 29.95 in 6.2 mi SSE 10.4 mph - N/A Thunderstorm Mostly Cloudy
8:00 PM 80.6 °F 85.4 °F 73.4 °F 79% 29.95 in 6.2 mi SSE 5.8 mph - N/A   Mostly Cloudy
9:00 PM 80.6 °F 84.6 °F 71.6 °F 74% 29.98 in 6.2 mi Variable 2.3 mph - N/A Thunderstorm Mostly Cloudy
10:00 PM 80 °F - 73 °F 74% 30.01 in 9 mi WNW 8.1 mph - -   Mostly Cloudy
10:00 PM 80.6 °F 85.4 °F 73.4 °F 79% 30.01 in 6.2 mi WNW 8.1 mph - N/A Thunderstorm Scattered Clouds
11:00 PM 80.6 °F 86.2 °F 75.2 °F 84% 30.01 in 6.2 mi WNW 5.8 mph - N/A Thunderstorm Scattered Clouds